Regional Weather Roundup
Issued by NWS Cleveland, OH

Home | Current Version | Previous Version | Graphics & Text | Print | Product List | Glossary On
Versions: 1 2 3 4 5 6 7 8 9 10 11 12 13 14 15 16 17 18 19 20 21 22 23 24 25 26 27 28 29 30 31 32 33 34 35 36 37 38 39 40 41 42 43 44 45 46 47 48 49 50
000
ASUS41 KCLE 040702
RWRCLE
OHIO REGIONAL WEATHER ROUNDUP
NATIONAL WEATHER SERVICE CLEVELAND, OH
300 AM EDT WED MAY 04 2016

NOTE: "FAIR" INDICATES FEW OR NO CLOUDS BELOW 12,000 FEET WITH NO
SIGNIFICANT WEATHER AND/OR OBSTRUCTIONS TO VISIBILITY.

OHZ001>008-015>018-024>027-034-035-043-044-040800-
   NORTHWEST OHIO

CITY           SKY/WX    TMP DP  RH WIND       PRES   REMARKS
DEFIANCE       CLOUDY    52  44  74 S8        29.71F
FINDLAY        CLEAR     48  41  76 S8        29.72F
TOLEDO EXPRESS MOCLDY    49  43  80 S7        29.70F
TOLEDO EXEC    PTCLDY    50  43  77 S9        29.72F
LIMA           CLOUDY    48  44  86 S7        29.74F
$$

OHZ009>014-019>023-028>033-038-089-040800-
   NORTHEAST OHIO

CITY           SKY/WX    TMP DP  RH WIND       PRES   REMARKS
CLE-HOPKINS    PTCLDY    46  39  76 S7        29.76F
CLE-LAKEFRONT  CLEAR     50  38  63 S8        29.73F
CUY CO. ARPT   NOT AVBL
LORAIN-ELYRIA  CLEAR     45  40  82 SW5       29.74F
ASHTABULA      CLEAR     39  37  92 SE3       29.76F
AKRON-CANTON   PTCLDY    45  39  79 SW3       29.75F
WOOSTER        CLEAR     42  40  92 SE3       29.75F
MANSFIELD      CLEAR     45  43  93 S6        29.75F
YOUNGSTOWN     PTCLDY    40  37  89 CALM      29.76F
$$

OHZ042-051>053-060>062-070>072-077>081-040800-
  SOUTHWEST OHIO

CITY           SKY/WX    TMP DP  RH WIND       PRES   REMARKS
CINC-COVINGTON NOT AVBL
CINC-LUNKEN    CLEAR     48  48 100 S3        29.81F
HAMILTON       CLEAR     45  44  97 CALM      29.80F
DAYTON         PTCLDY    48  45  89 SW8       29.77F
WRIGHT-PAT AFB CLEAR     46  46 100 S3        29.77F
DAYTON GENERAL CLEAR     47  43  86 S3        29.77F
WILMINGTON     CLEAR     48  47  96 SW7       29.78F FOG
$$

OHZ036-037-039>041-045>050-054>059-063>069-073>076-082>088-040800-
  CENTRAL AND SOUTHEAST OHIO

CITY           SKY/WX    TMP DP  RH WIND       PRES   REMARKS
COLUMBUS       MOCLDY    47  45  93 CALM      29.76F
OSU AIRPORT    CLEAR     48  45  89 W3        29.76F
BOLTON FIELD   NOT AVBL
RICKENBACK AFB NOT AVBL
NEWARK         PTCLDY    50  46  86 CALM      29.76F
MARION         CLEAR     44  41  89 S5        29.76F
LANCASTER      CLOUDY    50  46  86 W3        29.77F
ZANESVILLE     CLOUDY    52  49  89 CALM      29.76F
NEW PHILLY     CLOUDY    50  46  86 CALM      29.76F
$$




USA.gov is the U.S. government's official web portal to all federal, state and local government web resources and services.